Home > Weather > Slough > Past weeks

Flag for United Kingdom Weather for the Past 2 Weeks in Slough, England, United Kingdom

Now
54 °F

Partly sunny.


Feels Like: 48 °F
Forecast: 48 / 52 °F
Wind: 22 mph from South

Location: London City Airport

Current Time: Feb 6, 2016 at 1:01:05 PM

Latest Report: Feb 6, 2016 at 12:20 PM


Visibility: N/A

Pressure: 29.47 "Hg

Humidity: 72%

Dew point: 45 °F

Location of SloughLocation

Historic Weather in Slough — Graph

°F

Slough Temperature Yesterday

Maximum temperature yesterday: 52 °F (at 12:20 AM)
Minimum temperature yesterday: 50 °F (at 6:20 AM)
Average temperature yesterday: 52 °F

High & Low Weather Summary for the Past Weeks

 TemperatureHumidityPressure
High59 °F (Jan 24, 12:20 PM)94% (Jan 22, 2:50 PM)30.45 "Hg (Jan 22, 2:50 PM)
Low39 °F (Jan 28, 7:20 AM)44% (Feb 2, 12:20 PM)29.50 "Hg (Feb 6, 11:20 AM)
Average50 °F75%30.05 "Hg
* Reported Jan 22 11:20 AM — Feb 6 11:50 AM, Slough, Weather by CustomWeather, © 2016

Note: Actual official high and low records may vary slightly from our data, if they occured in-between our weather recording intervals... More about our weather records

Advertising

Slough Weather History for the Previous 24 Hours

 ConditionsComfort  
Time TempWeatherWind HumidityBarometerVisibility
11:50 AM
Sat, Feb 6
54 °FPartly sunny.25 mph72%29.50 "HgN/A
11:20 AM54 °FPartly sunny.24 mph72%29.50 "HgN/A
10:50 AM54 °FOvercast.21 mph72%29.53 "HgN/A
9:50 AM52 °FPartly sunny.20 mph77%29.56 "HgN/A
9:20 AM52 °FPartly sunny.17 mph77%29.56 "HgN/A
8:50 AM52 °FPartly sunny.17 mph77%29.59 "HgN/A
8:20 AM52 °FOvercast.16 mph82%29.62 "HgN/A
7:50 AM50 °FPartly sunny.9 mph88%29.62 "HgN/A
7:20 AM50 °FPassing clouds.13 mph88%29.65 "Hg6 mi
6:50 AM52 °FPassing clouds.14 mph77%29.65 "HgN/A
6:20 AM52 °FPassing clouds.12 mph77%29.65 "HgN/A
5:50 AM50 °FPassing clouds.13 mph88%29.65 "HgN/A
5:20 AM50 °FPassing clouds.13 mph88%29.68 "Hg4 mi
4:50 AM50 °FPassing clouds.14 mph88%29.68 "HgN/A
4:20 AM50 °FPassing clouds.14 mph88%29.71 "HgN/A
3:50 AM50 °FPassing clouds.15 mph88%29.71 "HgN/A
3:20 AM50 °FPassing clouds.14 mph88%29.74 "HgN/A
2:50 AM50 °FPassing clouds.15 mph82%29.74 "HgN/A
2:20 AM50 °FLight rain. Passing clouds.15 mph82%29.74 "HgN/A
1:50 AM50 °FPassing clouds.16 mph82%29.77 "HgN/A
1:20 AM50 °FPartly cloudy.16 mph82%29.77 "HgN/A
12:20 AM52 °FPassing clouds.20 mph72%29.80 "HgN/A
11:50 PM
Fri, Feb 5
52 °FPartly cloudy.16 mph77%29.80 "HgN/A
11:20 PM52 °FOvercast.16 mph77%29.80 "HgN/A
10:20 PM50 °FLight rain. Partly cloudy.16 mph82%29.83 "HgN/A
9:50 PM50 °FLight rain. Partly cloudy.16 mph82%29.83 "Hg6 mi
9:20 PM50 °FPassing clouds.20 mph82%29.86 "HgN/A
8:50 PM52 °FDrizzle. Mostly cloudy.20 mph77%29.86 "HgN/A
8:20 PM52 °FPartly cloudy.17 mph77%29.89 "HgN/A
7:50 PM52 °FPartly cloudy.18 mph77%29.89 "HgN/A
7:20 PM52 °FPassing clouds.10 mph77%29.89 "HgN/A
6:50 PM52 °FPartly cloudy.13 mph77%29.92 "HgN/A
6:20 PM52 °FPassing clouds.13 mph77%29.92 "HgN/A
5:50 PM52 °FPassing clouds.16 mph72%29.95 "HgN/A
5:20 PM52 °FPassing clouds.17 mph72%29.95 "HgN/A
4:50 PM52 °FPartly sunny.16 mph72%29.95 "HgN/A
4:20 PM52 °FPartly sunny.17 mph77%29.98 "HgN/A
3:50 PM52 °FBroken clouds.17 mph77%29.98 "HgN/A
3:20 PM52 °FBroken clouds.16 mph77%29.98 "HgN/A
2:50 PM52 °FBroken clouds.16 mph82%30.01 "HgN/A
2:20 PM52 °FScattered clouds.18 mph82%30.01 "HgN/A
1:50 PM52 °FBroken clouds.14 mph82%30.04 "HgN/A
1:20 PM52 °FDrizzle. Partly sunny.15 mph82%30.04 "HgN/A
Weather by CustomWeather, © 2016

See weather overviewHow to use our weather pages